[[{"header":{"parameterUnit":"m.s-1","parameterCategory":1,"la1":30.2991,"la2":30.254,"lo1":-89.0895,"lo2":-89.0444,"dy":0.0017,"dx":0.0017,"nx":28,"ny":28,"refTime":"2024-03-16T09:00:00:Z","depth":0,"parameterNumber":2,"parameterNumberName":"U-component_of_WINDS"},"data":[0,0,0,0,0,0,0,0,0,0,0,0,0,0,0,0,0,0,0,0,0,0,0,0,0,0,0,0,0,0,0,0,0,0,0,0,0,0,0,0,0,0,0,0,0,0,0,0,0,0,0,0,0,0,0,0,0,0,0.1324,0.1324,0,0.1373,0.1374,0.1374,0.1402,0.1402,0.1402,0.1402,0.1451,0.1452,0.1453,0,0,0,0,0,0,0,0,0,0,0,0,0,0.1252,0.1254,0.1324,0.1324,0.1325,0.1373,0.1374,0.1374,0.1402,0.1402,0.1402,0.1402,0.1451,0.1452,0.1453,0,0,0,0,0,0,0,0,0,0,0,0,0,0.1291,0.1254,0.1324,0.1345,0.1347,0.1373,0.1374,0.1374,0.1402,0.1402,0.1402,0.1402,0.145,0.1452,0.1454,0.1462,0,0,0.1459,0.146,0,0,0,0,0,0,0,0,0.1288,0.1293,0.1341,0.1343,0.1346,0.1382,0.1366,0.1404,0.1402,0.1381,0.1402,0.1403,0.1428,0.1431,0.144,0.1464,0.1466,0.1459,0.146,0.1461,0.1462,0,0,0,0,0,0,0,0.1286,0.1291,0.1343,0.1342,0.1345,0.1351,0.1357,0.1374,0.1403,0.1383,0.1385,0.1391,0.1429,0.1438,0.1442,0.1467,0.1459,0.1461,0.1462,0.1463,0.1501,0.1501,0,0,0,0,0,0,0.128,0.1289,0.1342,0.1345,0.1317,0.1352,0.1359,0.137,0.1403,0.1408,0.139,0.1392,0.1435,0.1439,0.1443,0.1456,0.1461,0.1463,0.1464,0.1501,0.1501,0.1501,0,0,0,0,0,0,0.1278,0.1284,0.134,0.1317,0.1325,0.1353,0.1366,0.1371,0.138,0.1408,0.1414,0.1395,0.1435,0.1441,0.1457,0.1458,0.1464,0.1465,0.1501,0.1501,0.1501,0.148,0,0,0,0,0,0,0.1276,0.1284,0.1287,0.1317,0.1326,0.1353,0.1366,0.1372,0.1383,0.1386,0.1414,0.1419,0.1436,0.1454,0.1459,0.146,0.1467,0.1501,0.1501,0.1501,0.148,0.1479,0.1478,0,0,0,0,0,0.1274,0.1279,0.1287,0.1293,0.1331,0.1353,0.1358,0.1378,0.1383,0.1387,0.1405,0.1418,0.1457,0.1456,0.1461,0.1463,0.1501,0.1501,0.1501,0.1481,0.1479,0.1478,0,0,0,0,0,0,0.1247,0.1283,0.1293,0.1308,0.1327,0.1358,0.1363,0.1375,0.1393,0.1394,0.1419,0.1425,0.1439,0.1453,0.1451,0.1473,0.148,0.1481,0.1464,0.1462,0.146,0.1457,0.1468,0,0,0,0,0,0.1243,0.1258,0.1289,0.1299,0.1308,0.1334,0.1344,0.1358,0.1379,0.1387,0.1407,0.1426,0.1443,0.1453,0.147,0.1483,0.149,0.1487,0.1485,0.1484,0.1484,0.1493,0.1492,0.15,0.15,0.15,0,0,0.1234,0.1256,0.1264,0.1294,0.1311,0.1326,0.134,0.1355,0.1367,0.1389,0.1406,0.1421,0.1444,0.1459,0.1467,0.1471,0.1484,0.1484,0.1482,0.1484,0.1492,0.1492,0.1491,0.15,0.15,0.15,0,0,0.1227,0.1245,0.1256,0.1272,0.1298,0.1315,0.1318,0.1346,0.1358,0.1375,0.1393,0.1407,0.1435,0.1451,0.1463,0.1462,0.1475,0.1467,0.1459,0.1467,0.1467,0.1466,0.1466,0.1466,0.1468,0.1468,0.1468,0,0.1213,0.1236,0.1259,0.1274,0.1287,0.1309,0.132,0.1335,0.1364,0.1373,0.1377,0.1414,0.1431,0.145,0.1451,0.1459,0.1463,0.1464,0.1465,0.1465,0.1465,0.1465,0.1465,0.1467,0.1467,0.1467,0.1467,0,0.1218,0.1234,0.124,0.1269,0.1283,0.1295,0.132,0.1331,0.1344,0.1361,0.1379,0.1401,0.1423,0.1428,0.1441,0.145,0.1452,0.146,0.1468,0.1462,0.1463,0.1464,0.1465,0.1465,0.1466,0.1466,0,0,0.1194,0.1237,0.1238,0.1252,0.1282,0.1295,0.1309,0.1332,0.1341,0.136,0.1373,0.1397,0.1405,0.1419,0.1434,0.1441,0.144,0.1449,0.1449,0.1446,0.1451,0.1444,0.1444,0.1448,0.1448,0.1448,0.1449,0,0.1191,0.1217,0.1239,0.1257,0.1273,0.1295,0.1307,0.1327,0.1343,0.1358,0.1376,0.1393,0.1403,0.1411,0.1419,0.1438,0.1441,0.1438,0.146,0.146,0.1453,0.1445,0.1437,0.1437,0.145,0.145,0.145,0,0.119,0.121,0.123,0.126,0.1267,0.1278,0.1301,0.1315,0.1338,0.135,0.1366,0.1381,0.1397,0.1404,0.1426,0.1424,0.1434,0.1445,0.1445,0.1448,0.1454,0.1447,0.1437,0.1437,0.1451,0.1451,0.1451,0,0.1171,0.1203,0.1219,0.123,0.1265,0.1272,0.1287,0.1311,0.1323,0.1343,0.1351,0.1373,0.1384,0.14,0.1421,0.1424,0.1441,0.145,0.1451,0.1451,0.1453,0.1453,0.1445,0.146,0.146,0.146,0.146,0,0.1164,0.1176,0.1211,0.1221,0.1235,0.126,0.1272,0.1289,0.131,0.1324,0.1344,0.1356,0.1384,0.1399,0.1416,0.1432,0.1437,0.1447,0.1451,0.1445,0.1444,0.1452,0.1452,0.146,0.146,0.146,0.146,0,0.1144,0.1168,0.1188,0.122,0.1229,0.1237,0.1265,0.1275,0.1293,0.131,0.1316,0.1344,0.1363,0.1387,0.1413,0.1425,0.144,0.1446,0.1432,0.1434,0.1435,0.1434,0.1432,0.1433,0.1447,0.1446,0.1446,0,0.1139,0.1148,0.1182,0.1193,0.1208,0.1225,0.1238,0.1263,0.1276,0.1304,0.1312,0.1333,0.1351,0.1382,0.1404,0.1425,0.1432,0.143,0.1435,0.1429,0.1433,0.1432,0.1433,0.1428,0.1428,0.1428,0.1428,0,0.1126,0.1138,0.1157,0.118,0.1195,0.1214,0.1234,0.1242,0.1271,0.1285,0.1306,0.132,0.1349,0.137,0.1394,0.1409,0.1423,0.1426,0.1428,0.1421,0.1413,0.1418,0.1428,0.1426,0.1426,0.1426,0.1426,0.1426,0.1113,0.1123,0.1149,0.1169,0.1187,0.1206,0.1218,0.1238,0.1256,0.1281,0.1295,0.1316,0.134,0.1374,0.1389,0.1405,0.141,0.1412,0.1412,0.1413,0.1411,0.141,0.1409,0.141,0.141,0.141,0.141,0,0.1102,0.112,0.1138,0.1166,0.1182,0.1196,0.1219,0.1231,0.125,0.1271,0.1289,0.1314,0.1335,0.1359,0.1382,0.1391,0.1398,0.1396,0.1395,0.1399,0.1405,0.1402,0.139,0.139,0.139,0.139,0.139,0.139,0.1098,0.1115,0.113,0.1157,0.1175,0.1196,0.1208,0.1226,0.1243,0.127,0.1288,0.1304,0.1327,0.1352,0.1372,0.1379,0.1386,0.1382,0.1391,0.1396,0.1398,0.14,0.1396,0.1383,0.1383,0.1383,0.1383,0.1383]},{"header":{"parameterUnit":"m.s-1","parameterCategory":1,"la1":30.2991,"la2":30.254,"lo1":-89.0895,"lo2":-89.0444,"dy":0.0017,"dx":0.0017,"nx":28,"ny":28,"refTime":"2024-03-16T09:00:00:Z","depth":0,"parameterNumber":3,"parameterNumberName":"V-component_of_WINDS"},"data":[0,0,0,0,0,0,0,0,0,0,0,0,0,0,0,0,0,0,0,0,0,0,0,0,0,0,0,0,0,0,0,0,0,0,0,0,0,0,0,0,0,0,0,0,0,0,0,0,0,0,0,0,0,0,0,0,0,0,-4.3633,-4.3634,0,-4.3682,-4.3682,-4.3683,-4.3606,-4.3603,-4.3601,-4.3598,-4.3645,-4.3649,-4.3653,0,0,0,0,0,0,0,0,0,0,0,0,0,-4.3471,-4.3474,-4.3633,-4.3634,-4.3634,-4.3682,-4.3682,-4.3683,-4.3606,-4.3603,-4.36,-4.3597,-4.3644,-4.3648,-4.3653,0,0,0,0,0,0,0,0,0,0,0,0,0,-4.3532,-4.3475,-4.3633,-4.3602,-4.36,-4.3681,-4.3682,-4.3683,-4.3607,-4.3603,-4.3599,-4.3596,-4.3643,-4.3648,-4.3654,-4.3767,0,0,-4.3671,-4.3673,0,0,0,0,0,0,0,0,-4.3529,-4.3538,-4.3606,-4.3604,-4.3602,-4.3634,-4.3642,-4.3711,-4.3608,-4.3604,-4.3598,-4.3594,-4.3645,-4.365,-4.3667,-4.3769,-4.3771,-4.3671,-4.3674,-4.3677,-4.3678,0,0,0,0,0,0,0,-4.3525,-4.3536,-4.3652,-4.3607,-4.3604,-4.3584,-4.3589,-4.3655,-4.3646,-4.3604,-4.3599,-4.3606,-4.3643,-4.3662,-4.3668,-4.3772,-4.3671,-4.3676,-4.3679,-4.3681,-4.397,-4.3974,0,0,0,0,0,0,-4.3525,-4.3533,-4.365,-4.3654,-4.3555,-4.3591,-4.3596,-4.3627,-4.3645,-4.3644,-4.3609,-4.3602,-4.3655,-4.3662,-4.3669,-4.3804,-4.3677,-4.3682,-4.3685,-4.3966,-4.3971,-4.3976,0,0,0,0,0,0,-4.3522,-4.3536,-4.3649,-4.3592,-4.3605,-4.3598,-4.3634,-4.363,-4.365,-4.3649,-4.3646,-4.3631,-4.3652,-4.3661,-4.3744,-4.3805,-4.3685,-4.369,-4.3961,-4.3967,-4.3973,-4.4075,0,0,0,0,0,0,-4.3517,-4.3535,-4.3579,-4.3593,-4.3608,-4.3723,-4.3638,-4.3634,-4.366,-4.3651,-4.3669,-4.3668,-4.3649,-4.3736,-4.3749,-4.381,-4.3694,-4.3955,-4.3964,-4.3971,-4.4066,-4.4084,-4.4099,0,0,0,0,0,-4.3512,-4.3605,-4.3582,-4.3596,-4.3663,-4.3727,-4.3735,-4.3713,-4.3665,-4.3709,-4.3708,-4.3667,-4.3796,-4.3745,-4.3759,-4.3823,-4.3951,-4.3961,-4.3971,-4.4058,-4.408,-4.4099,0,0,0,0,0,0,-4.3597,-4.3606,-4.3581,-4.3682,-4.3704,-4.3714,-4.3768,-4.3737,-4.3773,-4.3763,-4.3733,-4.3738,-4.3826,-4.3832,-4.3776,-4.3934,-4.3865,-4.3878,-4.3927,-4.3948,-4.3964,-4.3961,-4.3699,0,0,0,0,0,-4.3628,-4.368,-4.3685,-4.3773,-4.3786,-4.3776,-4.3803,-4.3784,-4.3806,-4.3815,-4.382,-4.3842,-4.3887,-4.3917,-4.3959,-4.4066,-4.4069,-4.4117,-4.4133,-4.4147,-4.4159,-4.4216,-4.4238,-4.4008,-4.4007,-4.4007,0,0,-4.3691,-4.3703,-4.3738,-4.3791,-4.3806,-4.3861,-4.3784,-4.3845,-4.3884,-4.3823,-4.3902,-4.3907,-4.3929,-4.4024,-4.4067,-4.4032,-4.4223,-4.4159,-4.417,-4.4175,-4.4229,-4.425,-4.427,-4.4014,-4.4013,-4.4012,0,0,-4.3836,-4.385,-4.3925,-4.3942,-4.3967,-4.3959,-4.3978,-4.3992,-4.3994,-4.4072,-4.4028,-4.4074,-4.4152,-4.417,-4.419,-4.4341,-4.4305,-4.4355,-4.4443,-4.4499,-4.4517,-4.4533,-4.4588,-4.4608,-4.4367,-4.4367,-4.4367,0,-4.3911,-4.3993,-4.3968,-4.4032,-4.4057,-4.4005,-4.4081,-4.4098,-4.4135,-4.4153,-4.4114,-4.4212,-4.4223,-4.4322,-4.4359,-4.4377,-4.4396,-4.4354,-4.4517,-4.4532,-4.4547,-4.4599,-4.4619,-4.4373,-4.4373,-4.4372,-4.4371,0,-4.4085,-4.4142,-4.42,-4.4238,-4.4269,-4.4339,-4.4324,-4.4358,-4.4336,-4.4332,-4.4413,-4.4425,-4.4468,-4.449,-4.4469,-4.4586,-4.4564,-4.4522,-4.4452,-4.4575,-4.4624,-4.4643,-4.4382,-4.438,-4.4378,-4.4376,0,0,-4.4285,-4.4309,-4.4331,-4.4348,-4.4371,-4.4414,-4.4481,-4.4524,-4.4555,-4.4581,-4.4637,-4.4704,-4.4665,-4.4688,-4.4668,-4.4717,-4.4837,-4.4668,-4.4668,-4.47,-4.4968,-4.5001,-4.5025,-4.4813,-4.4816,-4.4819,-4.4967,0,-4.4429,-4.4547,-4.4526,-4.464,-4.4692,-4.4644,-4.4702,-4.4722,-4.4721,-4.4764,-4.4761,-4.481,-4.4754,-4.4767,-4.4814,-4.4813,-4.4891,-4.4802,-4.4864,-4.4867,-4.4861,-4.505,-4.5085,-4.5223,-4.4985,-4.4988,-4.4991,0,-4.4614,-4.4649,-4.4768,-4.4784,-4.4805,-4.4858,-4.4897,-4.4939,-4.496,-4.4955,-4.4981,-4.4952,-4.5018,-4.4947,-4.5038,-4.4978,-4.5002,-4.5005,-4.501,-4.5016,-4.4937,-4.5062,-4.5267,-4.5288,-4.502,-4.5018,-4.5015,0,-4.4749,-4.4826,-4.4907,-4.4923,-4.4943,-4.4982,-4.4992,-4.501,-4.5037,-4.507,-4.5088,-4.5128,-4.515,-4.5181,-4.5163,-4.5113,-4.5257,-4.5184,-4.5255,-4.5256,-4.5288,-4.5287,-4.5501,-4.5302,-4.5302,-4.5302,-4.5301,0,-4.4913,-4.4988,-4.4969,-4.5019,-4.5102,-4.5077,-4.5159,-4.5163,-4.5179,-4.5229,-4.5188,-4.5235,-4.5209,-4.5254,-4.524,-4.5317,-4.5327,-4.5325,-4.5321,-4.533,-4.533,-4.5346,-4.5336,-4.5307,-4.5306,-4.5305,-4.5304,0,-4.5078,-4.5068,-4.5154,-4.5166,-4.5171,-4.5232,-4.5242,-4.5288,-4.5283,-4.5347,-4.536,-4.5352,-4.5403,-4.5388,-4.5443,-4.5433,-4.5532,-4.5515,-4.5526,-4.5522,-4.5593,-4.5587,-4.5826,-4.5857,-4.5637,-4.5639,-4.5641,0,-4.5184,-4.5241,-4.526,-4.5291,-4.5305,-4.5355,-4.5383,-4.536,-4.5391,-4.5421,-4.5464,-4.5511,-4.5548,-4.5632,-4.563,-4.5672,-4.5656,-4.5737,-4.5662,-4.5669,-4.5658,-4.5656,-4.5662,-4.5752,-4.5755,-4.5757,-4.5758,0,-4.5374,-4.5366,-4.5409,-4.5451,-4.5487,-4.5518,-4.5545,-4.5573,-4.5552,-4.5588,-4.5641,-4.567,-4.5726,-4.5774,-4.5812,-4.582,-4.5787,-4.5782,-4.58,-4.5811,-4.5815,-4.5815,-4.5568,-4.5777,-4.5775,-4.5773,-4.5772,-4.5772,-4.5514,-4.5562,-4.5584,-4.5633,-4.5651,-4.5678,-4.5723,-4.5724,-4.5768,-4.5813,-4.5796,-4.5856,-4.5876,-4.5924,-4.5938,-4.5984,-4.5953,-4.5979,-4.5986,-4.5994,-4.6004,-4.5807,-4.599,-4.599,-4.5989,-4.5989,-4.5988,0,-4.5702,-4.5713,-4.5759,-4.58,-4.5839,-4.5804,-4.5832,-4.5867,-4.5921,-4.5943,-4.598,-4.604,-4.6086,-4.6089,-4.6132,-4.6168,-4.6154,-4.618,-4.6178,-4.6181,-4.6028,-4.6008,-4.6191,-4.6191,-4.6191,-4.6191,-4.6191,-4.6191,-4.5805,-4.5886,-4.5881,-4.597,-4.598,-4.604,-4.606,-4.6084,-4.6102,-4.6171,-4.621,-4.6211,-4.6225,-4.6269,-4.6309,-4.6309,-4.6327,-4.636,-4.6354,-4.6211,-4.6191,-4.6172,-4.6153,-4.6364,-4.6364,-4.6502,-4.6504,-4.6505]}]]